Change the Weather History Date:

Tuesday, August 12, 2014

  Actual Average (KEGE) Record (KEGE)
Temperature  
Mean Temperature 64 °F -  
Max Temperature 87 °F 82 °F 95 °F (1958)
Min Temperature 41 °F 47 °F 34 °F (1970)
Degree Days  
Heating Degree Days 1    
Growing Degree Days 14 (Base 50)    
Moisture  
Dew Point 32 °F    
Average Humidity 41    
Maximum Humidity 87    
Minimum Humidity 8    
Precipitation  
Precipitation 0.00 in - - ()
Sea Level Pressure  
Sea Level Pressure 30.42 in    
Wind  
Wind Speed 1 mph (SW)    
Max Wind Speed 13 mph    
Max Gust Speed 16 mph    
Visibility 10 miles    
Events      
Averages and records for this station are not official NWS values.
T = Trace of Precipitation, MM = Missing Value Source: NWS Daily Summary

Daily Weather History Graph

Daily Weather History Graph

Search for Another Location

Airport or City:

Trip Planner

Search our weather history database for the weather conditions in past years. The results will help you decide how hot, cold, wet, or windy it might be!

Date:

Astronomy

Aug. 12, 2014 Rise Set
Actual Time 6:14 AM MDT 8:06 PM MDT
Civil Twilight 5:44 AM MDT 8:35 PM MDT
Nautical Twilight 5:09 AM MDT 9:10 PM MDT
Astronomical Twilight 4:30 AM MDT 9:48 PM MDT
Moon 9:15 PM MDT (8/12) 8:34 AM MDT (8/12)
Length of Visible Light 14h 50m
Length of Day
13h 51m
Waning Gibbous, 94% of the Moon is Illuminated
Aug 12
Waning Gibbous
Aug 17
Last Quarter
Aug 25
New
Sep 2
First Quarter
Sep 8
Full

Hourly Weather History & Observations

Time (MDT) Temp. Dew Point Humidity Pressure Visibility Wind Dir Wind Speed Gust Speed Precip Events Conditions
12:17 AM 53.6 °F 37.4 °F 54% 30.48 in 10.0 mi Calm Calm - N/A   Clear
12:37 AM 53.6 °F 37.4 °F 54% 30.48 in 10.0 mi Calm Calm - N/A   Clear
12:57 AM 53.6 °F 37.4 °F 54% 30.48 in 10.0 mi Calm Calm - N/A   Clear
1:17 AM 50.0 °F 35.6 °F 58% 30.48 in 10.0 mi Calm Calm - N/A   Clear
1:37 AM 50.0 °F 37.4 °F 62% 30.48 in 10.0 mi Calm Calm - N/A   Clear
1:57 AM 50.0 °F 37.4 °F 62% 30.48 in 10.0 mi Calm Calm - N/A   Clear
2:17 AM 50.0 °F 37.4 °F 62% 30.48 in 10.0 mi Calm Calm - N/A   Clear
2:37 AM 50.0 °F 41.0 °F 71% 30.48 in 10.0 mi Calm Calm - N/A   Clear
2:57 AM 48.2 °F 39.2 °F 71% 30.48 in 10.0 mi Calm Calm - N/A   Clear
3:37 AM 46.4 °F 37.4 °F 71% 30.49 in 10.0 mi Calm Calm - N/A   Clear
3:57 AM 46.4 °F 37.4 °F 71% 30.49 in 10.0 mi Calm Calm - N/A   Clear
4:17 AM 46.4 °F 37.4 °F 71% 30.49 in 10.0 mi Calm Calm - N/A   Clear
4:37 AM 42.8 °F 35.6 °F 76% 30.49 in 10.0 mi Calm Calm - N/A   Clear
4:57 AM 42.8 °F 37.4 °F 81% 30.49 in 10.0 mi Calm Calm - N/A   Clear
5:17 AM 42.8 °F 37.4 °F 81% 30.50 in 10.0 mi Calm Calm - N/A   Clear
5:37 AM 42.8 °F 35.6 °F 76% 30.50 in 10.0 mi Calm Calm - N/A   Clear
5:57 AM 41.0 °F 35.6 °F 81% 30.51 in 10.0 mi Calm Calm - N/A   Clear
6:17 AM 41.0 °F 37.4 °F 87% 30.51 in 10.0 mi Calm Calm - N/A   Clear
6:36 AM 41.0 °F 33.8 °F 76% 30.52 in 10.0 mi Calm Calm - N/A   Clear
6:57 AM 41.0 °F 33.8 °F 76% 30.52 in 10.0 mi Calm Calm - N/A   Clear
7:17 AM 44.6 °F 35.6 °F 71% 30.52 in 10.0 mi Calm Calm - N/A   Clear
7:37 AM 46.4 °F 37.4 °F 71% 30.52 in 10.0 mi Calm Calm - N/A   Clear
7:57 AM 50.0 °F 39.2 °F 66% 30.52 in 10.0 mi Calm Calm - N/A   Clear
8:17 AM 51.8 °F 37.4 °F 58% 30.52 in 10.0 mi Calm Calm - N/A   Clear
8:37 AM 53.6 °F 41.0 °F 62% 30.51 in 10.0 mi Calm Calm - N/A   Clear
8:57 AM 53.6 °F 39.2 °F 58% 30.51 in 10.0 mi Calm Calm - N/A   Clear
9:16 AM 55.4 °F 39.2 °F 54% 30.51 in 10.0 mi Calm Calm - N/A   Clear
9:37 AM 59.0 °F 39.2 °F 48% 30.50 in 10.0 mi Calm Calm - N/A   Clear
9:56 AM 60.8 °F 39.2 °F 45% 30.49 in 10.0 mi Calm Calm - N/A   Clear
11:37 AM 73.4 °F 39.2 °F 29% 30.45 in 10.0 mi Calm Calm - N/A   Clear
11:57 AM 73.4 °F 35.6 °F 25% 30.44 in 10.0 mi West 4.6 mph - N/A   Clear
12:17 PM 77.0 °F 35.6 °F 22% 30.43 in 10.0 mi NW 3.5 mph - N/A   Clear
12:37 PM 77.0 °F 30.2 °F 18% 30.42 in 10.0 mi Calm Calm - N/A   Clear
12:57 PM 78.8 °F 19.4 °F 11% 30.41 in 10.0 mi SW 5.8 mph - N/A   Clear
1:17 PM 80.6 °F 14.0 °F 8% 30.41 in 10.0 mi SW 8.1 mph - N/A   Clear
1:37 PM 82.4 °F 21.2 °F 10% 30.40 in 10.0 mi West 9.2 mph - N/A   Clear
1:57 PM 82.4 °F 21.2 °F 10% 30.39 in 10.0 mi SW 9.2 mph - N/A   Clear
2:37 PM 82.4 °F 19.4 °F 10% 30.38 in 10.0 mi SW 5.8 mph - N/A   Clear
2:57 PM 86.0 °F 21.2 °F 9% 30.37 in 10.0 mi WSW 6.9 mph - N/A   Clear
3:17 PM 84.2 °F 19.4 °F 9% 30.36 in 10.0 mi SW 6.9 mph - N/A   Clear
3:37 PM 82.4 °F 17.6 °F 9% 30.35 in 10.0 mi Calm Calm - N/A   Clear
3:57 PM 87.8 °F 21.2 °F 9% 30.34 in 10.0 mi Calm Calm - N/A   Clear
4:17 PM 87.8 °F 21.2 °F 9% 30.33 in 10.0 mi SSW 4.6 mph - N/A   Clear
4:36 PM 84.2 °F 19.4 °F 9% 30.33 in 10.0 mi Calm Calm - N/A   Clear
4:57 PM 87.8 °F 21.2 °F 9% 30.32 in 10.0 mi North 8.1 mph - N/A   Clear
5:17 PM 82.4 °F 21.2 °F 10% 30.32 in 10.0 mi North 5.8 mph - N/A   Clear
5:57 PM 82.4 °F 21.2 °F 10% 30.31 in 10.0 mi NNE 3.5 mph - N/A   Clear
6:16 PM 82.4 °F 21.2 °F 10% 30.31 in 10.0 mi North 4.6 mph - N/A   Clear
6:37 PM 80.6 °F 21.2 °F 11% 30.30 in 10.0 mi Calm Calm - N/A   Clear
6:56 PM 80.6 °F 23.0 °F 12% 30.30 in 10.0 mi Calm Calm - N/A   Clear
7:17 PM 77.0 °F 26.6 °F 16% 30.30 in 10.0 mi WNW 4.6 mph - N/A   Clear
7:37 PM 77.0 °F 28.4 °F 17% 30.31 in 10.0 mi West 4.6 mph - N/A   Clear
7:57 PM 73.4 °F 33.8 °F 23% 30.32 in 10.0 mi East 3.5 mph - N/A   Clear
8:17 PM 73.4 °F 33.8 °F 23% 30.32 in 10.0 mi East 12.7 mph 16.1 mph N/A   Clear
8:56 PM 71.6 °F 33.8 °F 25% 30.35 in 10.0 mi East 6.9 mph - N/A   Scattered Clouds
9:17 PM 69.8 °F 35.6 °F 28% 30.36 in 10.0 mi SSW 5.8 mph - N/A   Scattered Clouds
9:37 PM 66.2 °F 35.6 °F 32% 30.38 in 10.0 mi SSE 3.5 mph - N/A   Clear
9:57 PM 69.8 °F 35.6 °F 28% 30.38 in 10.0 mi SW 5.8 mph - N/A   Clear
10:17 PM 68.0 °F 35.6 °F 30% 30.38 in 10.0 mi Calm Calm - N/A   Clear
10:57 PM 62.6 °F 37.4 °F 39% 30.39 in 10.0 mi Calm Calm - N/A   Clear
11:16 PM 64.4 °F 37.4 °F 37% 30.38 in 10.0 mi South 4.6 mph - N/A   Clear
11:36 PM 64.4 °F 37.4 °F 37% 30.39 in 10.0 mi SSW 6.9 mph - N/A   Clear
11:57 PM 60.8 °F 37.4 °F 42% 30.39 in 10.0 mi South 6.9 mph - N/A   Clear